Location: Peterborough
(44.3091°N, 78.3197°W)
Time: 16:35:05
(UTC-04:00)

Transit 2A Rocket - Pass Details

Date: 23 March 2023
Orbit: 584 x 914 km, 66.7° (Epoch: 04 June)

Event Time Altitude Azimuth Distance (km) Brightness Sun altitude
Rises 21:03:37 0° 330° (NNW) 3,554 9.2 -17.3°
Reaches altitude 10° 21:06:15 10° 335° (NNW) 2,612 8.4 -17.8°
Maximum altitude 21:12:14 54° 52° (NE) 1,094 5.6 -18.8°
Enters shadow 21:14:36 34° 110° (ESE) 1,431 5.8 -19.2°
Drops below altitude 10° 21:18:00 10° 129° (SE) 2,514 - -19.7°
Sets 21:20:29 0° 134° (SE) 3,410 - -20.1°
